This is the latest recevied weather packets stored in our database for station/object DB0TV-13. If no packets are shown the sender has not sent any weather packets the latest 1 day(s).
| Time | Temp. | Humidity | Pressure | Rain* | Wind** | Luminosity | Snow |
|---|---|---|---|---|---|---|---|
| 1778002218 | 10.56° C | 96% | 1006.9 hPa | 0 mm | 0.89 m/s, 45° | 12 W/m² | - |
| 1778001620 | 10.56° C | 96% | 1006.9 hPa | 0 mm | 1.34 m/s, 68° | 14 W/m² | - |
| 1778001020 | 10.56° C | 97% | 1007.1 hPa | 0 mm | 1.34 m/s, 45° | 15 W/m² | - |
| 1778000418 | 10.56° C | 96% | 1007.1 hPa | 0 mm | 1.79 m/s, 45° | 18 W/m² | - |
| 1777999818 | 10.56° C | 96% | 1007 hPa | 0 mm | 1.34 m/s, 45° | 20 W/m² | - |
| 1777999220 | 10.56° C | 96% | 1007 hPa | 0 mm | 1.34 m/s, 45° | 24 W/m² | - |
| 1777998620 | 10.56° C | 96% | 1007.2 hPa | 0 mm | 0.89 m/s, 0° | 28 W/m² | - |
| 1777998018 | 10.56° C | 96% | 1007.1 hPa | 0 mm | 1.79 m/s, 23° | 38 W/m² | - |
| 1777997418 | 11.11° C | 96% | 1007.1 hPa | 0 mm | 1.34 m/s, 45° | 44 W/m² | - |
| 1777996820 | 11.11° C | 96% | 1007.2 hPa | 0 mm | 1.79 m/s, 45° | 40 W/m² | - |
| 1777996218 | 11.11° C | 96% | 1007.3 hPa | 0 mm | 1.79 m/s, 23° | 42 W/m² | - |
| 1777995618 | 11.11° C | 96% | 1007.3 hPa | 0 mm | 1.34 m/s, 45° | 54 W/m² | - |
| 1777995020 | 11.11° C | 96% | 1007.4 hPa | 0 mm | 0.89 m/s, 45° | 48 W/m² | - |
| 1777994420 | 11.67° C | 96% | 1007.6 hPa | 0 mm | 0.89 m/s, 45° | 55 W/m² | - |
| 1777993820 | 11.67° C | 96% | 1007.8 hPa | 0 mm | 0.89 m/s, 45° | 64 W/m² | - |
| 1777993218 | 11.67° C | 96% | 1007.7 hPa | 0 mm | 0.45 m/s, 0° | 82 W/m² | - |
| 1777992620 | 11.67° C | 96% | 1007.7 hPa | 0 mm | 0.89 m/s, 0° | 109 W/m² | - |
| 1777992020 | 11.67° C | 96% | 1007.8 hPa | 0 mm | 0.89 m/s, 23° | 103 W/m² | - |
| 1777991420 | 11.67° C | 95% | 1007.9 hPa | 0 mm | 1.34 m/s, 45° | 107 W/m² | - |
| 1777990819 | 11.67° C | 95% | 1007.9 hPa | 0 mm | 1.34 m/s, 45° | 117 W/m² | - |
| 1777990220 | 11.67° C | 95% | 1007.9 hPa | 0 mm | 1.34 m/s, 23° | 124 W/m² | - |
| 1777989620 | 12.22° C | 95% | 1007.8 hPa | 0 mm | 1.34 m/s, 45° | 92 W/m² | - |
| 1777989020 | 12.22° C | 95% | 1007.9 hPa | 0 mm | 1.34 m/s, 45° | 109 W/m² | - |
| 1777988418 | 12.22° C | 94% | 1008.1 hPa | 0 mm | 0.89 m/s, 23° | 96 W/m² | - |
| 1777987832 | 12.22° C | 94% | 1008.1 hPa | 0 mm | 1.34 m/s, 0° | 113 W/m² | - |
* Rain latest hour (hover to see other rain measurements)
** Current wind speed in m/s (hover to see current wind gust speed)